User: anonymous   Login
Location: Wanzleben
(52.0609°N, 11.4408°E)
Time: 10:54:34
(UTC+00:00)
Language:

SJ 16-02 - Orbit

View from above orbital plane
View from above orbital plane
View from above satellite
View from above satellite

Ground track
Ground track

The orbit data is extracted from the following two-line orbital elements,

1 41634U 16043A   20338.09425480  .00000193  00000-0  25424-4 0  9994
2 41634  75.0016 117.3739 0008279 252.0531 107.9758 14.85736758240281
Epoch (UTC): 03 December 2020 02:15:43
Eccentricity: 0.0008279
inclination: 75.0016°
perigee height: 605 km
apogee height: 617 km
right ascension of ascending node: 117.3739°
argument of perigee: 252.0531°
revolutions per day: 14.85736758
mean anomaly at epoch: 107.9758°
orbit number at epoch: 24028

The dashed part of the orbit path shows where the satellite is in the earth's shadow,  

DLR